Tracking 31027 objects as of 19-Jul-2025
HD Live streaming from Space Station
objects crossing your sky now

THOR ABLESTAR DEB

Track THOR ABLESTAR DEB now!
10-day predictions


NORAD ID: 357
Int'l Code: 1961-015DX
Perigee: 868.2 km
Apogee: 873.8 km
Inclination: 66.8 °
Period: 102.2 minutes
Semi major axis: 7241 km
RCS: 0.059 m2 (small)
Launch date: June 29, 1961
Source: United States (US)
Launch site: AIR FORCE EASTERN TEST RANGE (AFETR)

Note: This is SATELLITE DEBRIS
Your satellite tracking list
MOLNIYA 1-86
Track 1 satellite(s)




NASA's NSSDC Master Catalog

Two Line Element Set (TLE):
1   357U 61015DX  25199.70770512  .00000781  00000-0  49982-3 0  9994
2   357  66.8094   5.3251 0003825  52.3310 307.8124 14.08690518249280
Source of the keplerian elements: AFSPC